Regional Weather Roundup
Issued by NWS Wakefield, VA

Home | Current Version | Previous Version | Graphics & Text | Print | Product List | Glossary On
Versions: 1 2 3 4 5 6 7 8 9 10 11 12 13 14 15 16 17 18 19 20 21 22 23 24 25 26 27 28 29 30 31 32 33 34 35 36 37 38 39 40 41 42 43 44 45 46 47 48 49 50
000
ASUS41 KAKQ 260810
RWRAKQ

REGIONAL WEATHER ROUNDUP
NATIONAL WEATHER SERVICE WAKEFIELD VA
300 AM EST MON JAN 26 2015

Note: "fair" indicates few or no clouds below 12,000 feet with no
significant weather and/or obstructions to visibility. * = Denotes
station may not report precipitation (e.g., rain,snow,etc.),
thunder or fog.

VAZ042-051-052>054-056-260900-
NORTHERN VIRGINIA

CITY           SKY/WX    TMP DP  RH WIND       PRES   REMARKS
WASH NATIONAL  LGT RAIN  42  34  73 NE10      29.82F
DULLES         LGT RAIN  41  33  73 E6        29.80F
FORT BELVOIR   LGT RAIN  40  35  80 CALM      29.81F
QUANTICO       LGT RAIN  39  34  82 SE6       29.81F
FREDERICKSBRG* DRIZZLE   41  36  80 E6        29.78S
STAFFORD*      LGT RAIN  40  33  78 CALM      29.82F
WARRENTON      CLOUDY    40  38  91 CALM      29.77F
CULPEPER*      CLOUDY    37  36  93 CALM      29.77F
MANASSAS*      CLOUDY    41  36  81 CALM      29.79F
LEESBURG*      CLOUDY    37  37 100 NE6       29.81S
WINCHESTER     CLOUDY    36  32  87 NE5       29.77S FOG
FRONT ROYAL*   CLOUDY    36  34  93 N5        29.75F
LURAY*         RAIN      37  37 100 N9        29.73F
$$

VAZ048-049-060>072-079>083-260900-
CENTRAL AND SOUTH CENTRAL VIRGINIA

CITY           SKY/WX    TMP DP  RH WIND       PRES   REMARKS
RICHMOND       LGT RAIN  41  37  86 SE9       29.77F
CHESTERFIELD*  CLOUDY    41  27  56 CALM      29.78F
PETERSBURG*    CLOUDY    40  36  84 CALM      29.78F
HANOVER        CLOUDY    41  34  76 SE5       29.79F
TAPPAHANNOCK*  CLOUDY    41  32  70 E5        29.81F
QUINTON*       CLOUDY    40  35  83 E5        29.78F
CHARLOTTSVILLE LGT RAIN  37  34  89 CALM      29.74F
GORDONSVILLE*  CLOUDY    33  32  95 CALM      29.75S
ORANGE*        LGT RAIN  36  36 100 CALM      29.77F
LOUISA*        DRIZZLE   39  36  87 CALM      29.74F
BUMPASS*       CLOUDY    39  35  83 E6        29.76F
FARMVILLE*     LGT RAIN  43  37  77 S5        29.73F
CREWE*         CLOUDY    40  38  91 CALM      29.75S
FORT PICKETT*  CLOUDY    40  37  90 CALM      29.75F
CHASE CITY*    CLOUDY    41  41  99 CALM      29.74F
CLARKSVILLE*   CLOUDY    39  37  93 CALM      29.74F
SOUTH HILL*    CLOUDY    40  35  83 CALM      29.80F
LAWRENCEVILLE* PTSUNNY   38  35  87 CALM      29.75F
EMPORIA*       CLOUDY    36  34  93 E5        29.77F
$$

VAZ088>098-260900-
SOUTHEAST VIRGINIA

CITY           SKY/WX    TMP DP  RH WIND       PRES   REMARKS
NORFOLK        PTCLDY    39  33  79 CALM      29.80F
VIRGINIA BEACH PTCLDY    37  34  89 E3        29.81F
NORFOLK NAVAL  MOCLDY    40  33  76 SE8       29.81F
WEST POINT*    CLOUDY    41  34  76 E3        29.81F
SALUDA*        CLOUDY    39  34  81 S7        29.81F
NEWPORT NEWS   MOCLDY    40  34  79 E3        29.80F
LANGLEY AFB    CLOUDY    40  35  82 S2        29.80F
FORT EUSTIS    CLOUDY    39  36  87 SE5       29.78F
WILLIAMSBURG*    N/A     43  37  81 SE6       29.80F
HR EXEC AP*    FAIR      30  27  86 CALM      29.82F
FRANKLIN*      CLOUDY    35  33  92 CALM      29.79F
WAKEFIELD      MOCLDY    38  34  85 E3        29.78F
$$

VAZ020-022-025-037-045-260900-
WEST CENTRAL AND SOUTHWEST VIRGINIA

CITY           SKY/WX    TMP DP  RH WIND       PRES   REMARKS
STAUNTON*      LGT RAIN  37  33  85 CALM      29.72F
WAYNESBORO*    CLOUDY    38  34  84 E5        29.70F
HOT SPRINGS VA SNOW      32  32 100 CALM      29.60F VSB 1/4
LYNCHBURG      LGT RAIN  39  36  89 CALM      29.73F
DANVILLE       CLOUDY    43  34  70 E5        29.70F
SOUTH BOSTON*  CLOUDY    40  37  89 CALM      29.74S
MARTINSVILLE   PTCLDY    35  35 100 CALM      29.70S
ROANOKE        CLOUDY    42  32  67 SE3       29.69F
BLACKSBURG     CLOUDY    35  30  79 E5        29.67F
DUBLIN*        MOCLDY    37  33  86 CALM      29.65S
MARION*        MOCLDY    34  30  84 CALM      29.65S
HILLSVILLE*    CLEAR     38  31  76 SW3       29.62F
RICHLANDS*     CLOUDY    41  29  64 CALM      29.61S
WISE*          CLOUDY    39  34  81 S3        29.62S
ABINGDON*      CLOUDY    42  35  78 W3        29.64R
$$

MDZ021>025-VAZ099-100-260900-
SOUTHERN MARYLAND AND THE DELMARVA PENINSULA

CITY           SKY/WX    TMP DP  RH WIND       PRES   REMARKS
PATUXENT RIVER CLOUDY    39  35  86 SE8       29.82F
BAY BRIDGE APT   N/A     39  32  75 E9        29.84F
LEONARDTOWN    CLOUDY    41  34  75 SE5       29.82F
DOVER          CLOUDY    37  32  81 E10G18    29.84F
GEORGETOWN     CLOUDY    41  34  76 NE7       29.86F
EASTON         CLOUDY    42  36  78 E7        29.87F
CAMBRIDGE      CLOUDY    41  34  75 E6        29.83F
SALISBURY      CLOUDY    40  35  83 E5        29.85F
OCEAN CITY     CLOUDY    38  36  92 E3        29.86F
WALLOPS ISLAND CLOUDY    39  37  92 SE5       29.85F
ACCOMACK*      CLOUDY    37  34  87 CALM      29.83F
$$

NCZ012>017-030>032-260900-
NORTH CENTRAL AND EASTERN NORTH CAROLINA

CITY           SKY/WX    TMP DP  RH WIND       PRES   REMARKS
ROANOKE RAPIDS CLOUDY    36  34  93 CALM      29.75F
RALEIGH        MOCLDY    40  34  79 CALM      29.73F
ELIZABETH CITY MOCLDY    39  37  92 E3        29.80F
AHOSKIE*       CLOUDY    34  33  94 CALM      29.77F
EDENTON*       MOCLDY    38  36  92 CALM      29.78F
CURRITUCK*     MOCLDY    35  34  94 CALM      29.81F
KILL DEVIL HLS MOCLDY    43  41  92 E5        29.79F
MANTEO         MOCLDY    39  37  93 E3        29.80F
CAPE HATTERAS  MOCLDY    47  41  80 NE7       29.79F
TARBORO*       FAIR      36  35  96 CALM      29.77F
GOLDSBORO      PTCLDY    37  37  99 E3        29.74F
WASHINGTON     PTCLDY    37  35  92 CALM      29.77F
GREENVILLE     PTCLDY    36  36 100 CALM      29.79F
NEW BERN       PTCLDY    38  34  85 S3        29.79F
WILMINGTON     MOCLDY    47  43  86 S6        29.77F
$$

VAZ048-260900-
ELSEWHERE

CITY           SKY/WX    TMP DP  RH WIND       PRES   REMARKS
HARRISBURG PA  SNOW      27  25  92 E6        29.89S VSB 1/2
BALTIMORE      LGT RAIN  38  34  85 NE14      29.84F
ANNAPOLIS      LGT RAIN  40  33  76 E9        29.84F
ANDREWS AFB    DRIZZLE   39  36  87 NE6       29.81S
PHILADELPHIA   CLOUDY    30  23  75 NE10      29.96F WCI  21
HENDERSON NC   CLOUDY    40  33  76 CALM      29.73F
GREENSBORO     CLOUDY    39  33  79 SE3       29.66F
ROCKY MOUNT    MOCLDY    39  35  86 CALM      29.75F
$$

VAZ100-260900-
MARINE

STATION/POSITION TIME  TEMP    WIND        PRES    WAVE   SWELL
                       AIR SEA DIR/SP/G            HT/PER HT/PER
                 (UTC) (F)     (DEG/KT/KT) (MB)    (FT/S) (FT/S)
BRANDYWINE LGT   0800   38 37   80/ 16/ 22 1012.4F
CAPE MAY NJ      0800   38 39   60/  7/ 14 1011.9F
LEWES DE         0800   40 38   80/ 18/ 21 1011.4F
15NM E FENWICK I 0800   43 42              1011.6F   2/11
OCEAN-CITY-INLET 0800   41 40   80/  3/  4 1011.0F
WACHAPREAGUE VA  0800   40 42   30/  3/  3 1010.2F
THOMAS POINT MD  0800   40 38   80/  9/ 10 1011.4F
GOOSES REEF MD   0800   40 37  VRB 10/ 10  1008.8F   1/ 3
COVE POINT MD    0800   39     160/ 10/ 11 1009.7F
SOLOMONS ISLAND  0800      39                N/A
BISHOPS HEAD MD  0800   40 38  110/  8/  9 1009.6S
PINEY POINT MD   0800          120/  9/  9   N/A
POTOMAC MD       0800   40 39  150/  8/ 10 1008.8F   1/ 2
CAMBRIDGE MD     0800   41 36  100/  4/  6 1010.1F
LEWISETTA VA     0800   41 39  150/  3/  4 1009.4S
RAPPAHANNOCK LGT 0800          110/  9/  9 1010.1F
STINGRAY PT      0800   40 39  140/  8/ 10 1009.8F   1
YORK RVR RNG VA  0800   41     150/  8/  9 1008.6F
YORKTOWN VA      0800   40 41  140/  3/  4 1008.9F
JAMESTOWN VA     0800   40 41  120/  8/ 10   N/A     0
DOMINION TERM VA 0800   41      80/  1/  3 1009.1F
KIPTOPEKE VA     0800      45  110/  7/  8   N/A
CHES BAY BRIDGE  0800   41 42   90/  3/  5 1009.0F
CAPE HENRY VA    0800   42     120/  6/  7 1008.1F
CHESAPEAKE LGHT  0700   45     130/  4/  4 1011.0F
WILLOUBY STN VA  0800   41     130/  7/  8 1009.6F
S CRANEY ISL VA  0800          150/  2/  3 1009.1F
CAPE HENRY BUOY  0700      43                N/A     2/10
1ST LANDING BUOY 0800   42 41  120/  6/  8 1009.1F   1/ 4
CAPE CHARLES BUO 0800      43                N/A     2/11   2/11
OFFSHORE WE BUOY 0800      47                N/A     3/ 9   2/ 9
64NM E OF VA BCH 0800   50 53   70/  2/  2 1009.8F   3/ 9   3/ 9
DUCK PIER NC     0800   43 44  130/  5/  6 1008.6F
44100 DUCK FRF   0800      44                N/A     2/ 8   2/11
44056 DUCK FRF   0800      43                N/A     2/ 9   2/11
OREGON INLET NC  0800   44 47   60/  4/  5 1009.3F
HATTERAS NC      0800   48 53   60/  5/  6 1008.8F


USA.gov is the U.S. government's official web portal to all federal, state and local government web resources and services.